KB9QJM Weather Reports


time (UTC)temp
C
wind
direction
speed
KPH
gust
KPH
rain 1hr
cm
rain 24hr
cm
rain mn
cm
humidity
%
barometer
mb
20260503184550 16 229 22.5 40.2 0.00 0.00 0.00 50 1016.7
20260503183049 16 173 25.7 45.1 0.00 0.00 0.00 47 1017.1
20260503181600 16 178 20.9 38.6 0.00 0.00 0.00 50 1017.4
20260503180049 16 187 27.4 41.8 0.00 0.00 0.00 48 1017.9
20260503174551 16 185 20.9 40.2 0.00 0.00 0.00 49 1018.2
20260503173056 16 213 20.9 37.0 0.00 0.00 0.00 50 1018.5
20260503171547 15 232 27.4 38.6 0.00 0.00 0.00 50 1018.7
20260503081550 2 144 4.8 6.4 0.00 0.00 0.00 91 1019.5
20260503071559 2 144 4.8 6.4 0.00 0.00 0.00 90 1019.4
20260503060106 3 144 1.6 6.4 0.00 0.00 0.00 88 1019.9
20260503054549 3 144 4.8 6.4 0.00 0.00 0.00 86 1019.9
20260503053047 3 144 6.4 8.0 0.00 0.00 0.00 85 1019.9
20260503051550 3 173 6.4 8.0 0.00 0.00 0.00 85 1020.0
20260503050047 4 170 3.2 4.8 0.00 0.00 0.00 85 1019.8
20260503044558 4 196 1.6 3.2 0.00 0.00 0.00 84 1020.0
20260503043055 5 196 1.6 4.8 0.00 0.00 0.00 86 1019.8
20260503041550 4 196 1.6 4.8 0.00 0.00 0.00 84 1019.8
20260503040049 5 196 1.6 4.8 0.00 0.00 0.00 81 1020.0
20260503034550 5 196 1.6 3.2 0.00 0.00 0.00 79 1020.0
20260503033056 5 196 1.6 3.2 0.00 0.00 0.00 79 1019.8
20260503031545 6 196 1.6 3.2 0.00 0.00 0.00 79 1019.9
20260503030051 6 196 1.6 3.2 0.00 0.00 0.00 77 1020.0
20260503024554 6 196 0.0 3.2 0.00 0.00 0.00 73 1019.9
20260503023058 6 196 1.6 4.8 0.00 0.00 0.00 73 1019.9
20260503021555 7 196 1.6 4.8 0.00 0.00 0.00 70 1019.9
20260503020045 7 194 1.6 4.8 0.00 0.00 0.00 69 1019.7
20260503014548 8 188 0.0 3.2 0.00 0.00 0.00 67 1019.5
20260503013049 8 336 0.0 3.2 0.00 0.00 0.00 66 1019.1
20260503011600 9 341 3.2 6.4 0.00 0.00 0.00 58 1019.0
20260503010054 10 340 4.8 8.0 0.00 0.00 0.00 56 1019.1
20260503004546 10 342 8.0 14.5 0.00 0.00 0.00 52 1018.9
20260503003058 11 351 11.3 14.5 0.00 0.00 0.00 47 1018.9
20260503001546 11 355 14.5 24.1 0.00 0.00 0.00 45 1018.9
20260503000103 12 348 19.3 27.4 0.00 0.00 0.00 43 1018.8
20260502234551 12 340 11.3 22.5 0.00 0.00 0.00 41 1018.7
20260502233050 12 19 9.7 20.9 0.00 0.00 0.00 43 1018.6
20260502231549 12 328 22.5 32.2 0.00 0.00 0.00 39 1018.7
20260502230052 13 360 9.7 20.9 0.00 0.00 0.00 39 1018.7
20260502224547 12 294 11.3 25.7 0.00 0.00 0.00 41 1018.7
20260502223048 12 315 19.3 32.2 0.00 0.00 0.00 40 1018.8
20260502221552 12 292 17.7 30.6 0.00 0.00 0.00 43 1018.7
20260502220051 12 331 19.3 27.4 0.00 0.00 0.00 41 1018.8
20260502214553 12 325 16.1 27.4 0.00 0.00 0.00 41 1018.6
20260502213050 13 340 19.3 35.4 0.00 0.00 0.00 41 1018.5
20260502211555 13 327 17.7 32.2 0.00 0.00 0.00 39 1018.5
20260502210047 14 308 20.9 30.6 0.00 0.00 0.00 39 1018.5
20260502204548 13 329 14.5 27.4 0.00 0.00 0.00 42 1018.5
20260502203047 12 332 19.3 30.6 0.00 0.00 0.00 43 1018.6
20260502201544 13 281 17.7 33.8 0.00 0.00 0.00 42 1018.7
20260502200054 13 336 12.9 27.4 0.00 0.00 0.00 41 1018.7
20260502194546 13 301 19.3 27.4 0.00 0.00 0.00 41 1018.7
20260502193050 13 296 12.9 30.6 0.00 0.00 0.00 43 1018.7
20260502191557 13 312 9.7 22.5 0.00 0.00 0.00 45 1018.9
20260502190047 13 323 11.3 37.0 0.00 0.00 0.00 45 1019.0